Flag for U.S.A. Weather past 2 weeks in Mason, Ohio, U.S.A.

Now
27 °F

Ice fog.


Feels Like: 27 °F
Forecast: 23 / 38 °F
Wind: No wind

Location: Butler County Regional Airport

Current Time: Dec 21, 2014 at 10:59:42 AM

Latest Report: Dec 21, 2014 at 9:53 AM


Visibility: 3 mi

Pressure: 30.37 "Hg

Humidity: 92%

Dew point: 25 °F

Location of MasonLocation

Historic Weather in Mason — Graph

°F

Mason temperature yesterday

Maximum temperature yesterday: 33 °F (at 12:53 PM)
Minimum temperature yesterday: 20 °F (at 11:53 PM)
Average temperature yesterday: 30 °F

Past Weeks' High & Low Weather Summary

 TemperatureHumidityPressure
High50 °F (Dec 8, 1:53 PM)100% (Dec 6, 9:53 AM)30.64 "Hg (Dec 6, 9:53 AM)
Low17 °F (Dec 21, 4:53 AM)47% (Dec 11, 2:53 PM)29.71 "Hg (Dec 16, 4:53 AM)
Average36 °F77%30.24 "Hg
* Reported Dec 6 9:53 AM — Dec 21 9:53 AM, Mason, Weather by CustomWeather, © 2014

Note: Actual official high and low records may vary slightly from our data, if they occured in-between our weather recording intervals... More about our weather records

Advertising

Mason weather history for previous 24 hours

 ConditionsComfort  
Time TempWeatherWind HumidityBarometerVisibility
9:53 AM
Dec 21
27 °FIce fog.No wind92%30.37 "Hg3 mi
8:53 AM21 °FIce fog.No wind92%30.36 "Hg4 mi
7:53 AM17 °FIce fog.No wind92%30.35 "Hg4 mi
7:00 AM18 °FIce fog.No wind88%30.33 "Hg5 mi
6:02 AM18 °FIce fog.No wind88%30.34 "Hg5 mi
5:53 AM17 °FIce fog.No wind88%30.36 "Hg5 mi
4:53 AM17 °FIce fog.No wind88%30.34 "Hg6 mi
3:53 AM18 °FIce fog.No wind88%30.34 "Hg5 mi
2:53 AM18 °FIce fog.No wind88%30.34 "Hg4 mi
1:53 AM19 °FIce fog.No wind88%30.34 "Hg4 mi
12:53 AM19 °FIce fog.No wind92%30.34 "Hg5 mi
11:53 PM
Dec 20
20 °FIce fog.No wind92%30.34 "Hg5 mi
10:53 PM22 °FIce fog.No wind89%30.34 "Hg5 mi
9:53 PM23 °FIce fog.No wind92%30.33 "Hg4 mi
8:53 PM26 °FIce fog.No wind92%30.34 "Hg6 mi
7:53 PM30 °FOvercast.No wind85%30.33 "Hg8 mi
6:53 PM32 °FOvercast.No wind82%30.33 "Hg8 mi
5:53 PM32 °FOvercast.No wind79%30.32 "Hg8 mi
4:53 PM32 °FOvercast.3 mph79%30.31 "Hg7 mi
3:53 PM33 °FOvercast.3 mph75%30.29 "Hg7 mi
2:53 PM33 °FOvercast.3 mph75%30.29 "Hg7 mi
1:53 PM32 °FOvercast.No wind75%30.29 "Hg7 mi
12:53 PM33 °FOvercast.No wind72%30.31 "Hg8 mi
11:53 AM32 °FOvercast.3 mph79%30.32 "Hg8 mi
10:53 AM32 °FOvercast.3 mph75%30.34 "Hg8 mi
Weather by CustomWeather, © 2014

See weather overviewHow to use our weather pages